This demonstration page uses our WeatherBlox Daily Observations layout. Learn more.

Left ArrowRight Arrow

41.12389, -100.76542

Hourly Observations for May 24, 2017

Temp ( °F °C ) Dew Point ( °F °C ) Humidity (%) Winds ( mph kmh ) Pressure ( in mb ) Visibility ( mi km ) Precip ( " mm )
12:53 am 00:53 Clear 39 3.9 37 2.8 93 93 NW 8 13 29.99 1016 10 16 0.00 0.00
1:53 am 01:53 Clear 36 2.2 34 1.1 93 93 NW 6 9 29.97 1015 10 16 0.00 0.00
2:53 am 02:53 Clear 34 1.1 33 0.6 97 97 Calm 29.96 1015 10 16 0.00 0.00
3:53 am 03:53 Clear 33 0.6 32 0 96 96 WNW 6 9 29.94 1014 10 16 0.00 0.00
4:53 am 04:53 Clear 32 0 31 -0.6 96 96 WNW 5 7 29.93 1013 10 16 0.00 0.00
5:53 am 05:53 Clear 32 0 31 -0.6 96 96 N 3 6 29.89 1012 10 16 0.00 0.00
6:53 am 06:53 Sunny 32 0 31 -0.6 96 96 NW 6 9 29.89 1012 10 16 0.00 0.00
7:53 am 07:53 Sunny 41 5 38 3.3 89 89 NW 3 6 29.87 1012 10 16 0.00 0.00
8:53 am 08:53 Sunny 48 8.9 42 5.6 80 80 WNW 7 11 29.85 1011 10 16 0.00 0.00
9:53 am 09:53 Sunny 53 11.7 40 4.4 61 61 WSW 6 9 29.82 1010 10 16 0.00 0.00
10:53 am 10:53 Sunny 56 13.3 38 3.3 51 51 Calm 29.79 1009 10 16 0.00 0.00
11:53 am 11:53 Sunny 59 15 36 2.2 42 42 W 3 6 29.75 1008 10 16 0.00 0.00
12:53 pm 12:53 Sunny 61 16.1 37 2.8 41 41 E 3 6 29.74 1007 10 16 0.00 0.00
1:53 pm 13:53 Sunny 66 18.9 42 5.6 42 42 VRB 3 6 29.69 1006 10 16 0.00 0.00
2:53 pm 14:53 Sunny 68 20 43 6.1 40 40 S 9 15 29.67 1005 10 16 0.00 0.00
3:53 pm 15:53 Sunny 69 20.6 44 6.7 41 41 SW 9 15 29.64 1004 10 16 0.00 0.00
4:53 pm 16:53 Sunny 70 21.1 43 6.1 38 38 S 14 22 29.61 1003 10 16 0.00 0.00
5:53 pm 17:53 Sunny 71 21.7 44 6.7 38 38 S 10 17 29.59 1002 10 16 0.00 0.00
6:53 pm 18:53 Sunny 70 21.1 44 6.7 39 39 SSE 10 17 29.56 1001 10 16 0.00 0.00
7:53 pm 19:53 Sunny 68 20 44 6.7 42 42 SSE 13 20 29.54 1000 10 16 0.00 0.00
8:53 pm 20:53 Sunny 64 17.8 43 6.1 46 46 SE 12 19 29.52 1000 10 16 0.00 0.00
9:53 pm 21:53 Clear 60 15.6 44 6.7 56 56 SE 12 19 29.51 999 10 16 0.00 0.00
10:53 pm 22:53 Clear 58 14.4 42 5.6 56 56 SE 13 20 29.51 999 10 16 0.00 0.00
11:53 pm 23:53 Clear 58 14.4 43 6.1 58 58 SSE 13 20 29.51 999 10 16 0.00 0.00

Powered by AerisWeather